Regional Weather Roundup
Issued by NWS

Home | Current Version | Previous Version | Graphics & Text | Print | Product List | Glossary On
Versions: 1 2 3 4 5 6 7 8 9 10 11 12 13 14 15 16 17 18 19 20 21 22 23 24 25 26 27 28 29 30 31 32 33 34 35 36 37 38 39 40 41 42 43 44 45 46 47 48 49 50
000
ASUS43 KOAX 300510
RWRNE

WEATHER ROUNDUP FOR NEBRASKA
NATIONAL WEATHER SERVICE OMAHA NE
1200 AM CDT SAT AUG 30 2014

NOTES: SATELLITE DATA IS BEING USED TO AUGMENT CLOUD COVER ABOVE
       12000 FEET.
       "FAIR" INDICATES FEW OR NO CLOUDS BELOW 12,000 FEET WITH NO
       SIGNIFICANT WEATHER AND/OR OBSTRUCTIONS TO VISIBILITY.

  * THESE STATIONS DO NOT REPORT WEATHER SUCH AS RAIN...SNOW OR FOG.

NEZ001>004-019>022-054>056-300600-
NEBRASKA PANHANDLE

CITY           SKY/WX    TMP DP  RH WIND       PRES   REMARKS
SCOTTSBLUFF    MOCLDY    63  57  81 SE6       30.09R
ALLIANCE       CLEAR     56  53  90 SW3       30.08R
CHADRON        CLEAR     57  54  89 W5        30.04R
KIMBALL        PTCLDY    58  50  74 CALM      30.12S
SIDNEY         MOCLDY    61  53  75 SE6       30.12R
$$

NEZ057>060-069>072-079>082-300600-
SOUTHWEST NEBRASKA

CITY           SKY/WX    TMP DP  RH WIND       PRES   REMARKS
NORTH PLATTE   CLEAR     61  58  90 W3        30.02S
IMPERIAL       PTCLDY    65  57  75 NE5       30.05S
LEXINGTON      CLEAR     62  59  91 W3        29.99S
MCCOOK         CLEAR     65  59  81 NE5       30.02R
OGALLALA       CLEAR     60  55  85 NE3       30.05F
$$

NEZ005>010-023>029-035>040-094-300600-
NORTH CENTRAL NEBRASKA

CITY           SKY/WX    TMP DP  RH WIND       PRES   REMARKS
VALENTINE      CLEAR     59  56  89 NW3       30.01S
AINSWORTH      CLEAR     60  56  87 W3        29.99S
BROKEN BOW     CLEAR     61  58  90 CALM      29.98S
O`NEILL        MOCLDY    65  64  95 W8        29.93S
ORD            CLOUDY    63  59  87 NW7       29.93F
THEDFORD       CLEAR     60  56  87 CALM      30.03S
$$

NEZ041-046>049-061>064-073>077-083>087-300600-
SOUTH CENTRAL NEBRASKA

CITY           SKY/WX    TMP DP  RH WIND       PRES   REMARKS
GRAND ISLAND   PTCLDY    67  63  87 W8        29.92R
AURORA         PTCLDY    63  63 100 W5        29.91R
HASTINGS       PTCLDY    66  61  84 NW5       29.93S
HEBRON         CLEAR     66  62  86 CALM      29.90S
HOLDREGE       PTCLDY    63  60  90 CALM      29.99R
KEARNEY *      MOCLDY    66  57  72 W7        29.97S
YORK           CLEAR     63 N/A N/A W7        29.89S
$$

NEZ011>018-030>034-042>045-300600-
NORTHEAST NEBRASKA

CITY           SKY/WX    TMP DP  RH WIND       PRES   REMARKS
NORFOLK        PTCLDY    66  62  87 NW7       29.87R
ALBION         PTCLDY    63  58  83 NW7       29.89S
BLAIR          CLEAR     67  65  93 SW5       29.83S
FREMONT        CLEAR     69  66  92 W3        29.84S
TEKAMAH        CLEAR     65  63  93 NW5       29.82S
WAYNE          PTCLDY    65  62  90 NW6       29.85S
$$

NEZ050>053-065>068-078-088>093-300600-
SOUTHEAST NEBRASKA

CITY           SKY/WX    TMP DP  RH WIND       PRES   REMARKS
LINCOLN        CLEAR     69  66  90 W3        29.86F
OMAHA EPPLEY   CLEAR     69  65  86 CALM      29.83S
BEATRICE       PTCLDY    66  66 100 W3        29.88S FOG
FALLS CITY     PTCLDY    70  68  93 NW5       29.85R
NEBRASKA CITY  PTCLDY    68  68 100 NW8       29.85S
PLATTSMOUTH    CLEAR     68  65  90 CALM      29.84F
$$

NEZ044-045-051>053-067-300600-
OMAHA AREA

CITY           SKY/WX    TMP DP  RH WIND       PRES   REMARKS
OMAHA EPPLEY   CLEAR     69  65  86 CALM      29.83S
BLAIR          CLEAR     67  65  93 SW5       29.83S
FREMONT        CLEAR     69  66  92 W3        29.84S
MILLARD        CLEAR     68  66  93 CALM      29.83S
OFFUTT AFB     CLEAR     68  68 100 W2        29.82F
PLATTSMOUTH    CLEAR     68  65  90 CALM      29.84F
WAHOO          FAIR      67  65  90 W3        29.83F
$$



USA.gov is the U.S. government's official web portal to all federal, state and local government web resources and services.